Wind_Speed
17 16 15 15 15 14 14 13 16 17 18 19 19 21 12 16 17 19 20 21 22 22 25 25 26 28 28 27 26 22 15 12 10 10 9 7 10 15 13 10 9 11 6 5 6
15 15 13 12 13 12 12 12 12 16 17 17 17 17 17 16 16 16 18 19 21 21 22 21 21 22 23 24 23 24 23 20 16 11 7 4 5 11 13 10 11 10 8 9 8
17 14 12 11 10 8 7 8 8 11 14 15 15 15 14 15 14 16 16 17 16 18 20 19 18 18 17 17 19 19 18 19 19 16 11 6 3 2 8 8 9 9 8 8 7
18 15 13 12 8 5 4 3 1 3 5 8 10 12 14 14 14 15 16 16 16 18 17 15 15 15 14 11 11 13 12 12 15 15 11 8 9 10 13 16 16 17 15 13 13
20 18 16 13 10 8 7 6 5 4 1 2 5 6 8 10 12 14 16 17 17 17 17 17 16 12 8 7 5 3 9 8 10 11 12 10 8 3 6 11 14 17 15 16 15
22 20 18 16 13 11 10 9 8 7 6 5 4 6 8 10 13 14 13 15 17 19 19 17 16 16 11 5 7 9 4 6 6 9 10 8 9 9 8 4 8 11 14 14 15
25 22 20 18 16 16 15 13 12 12 12 12 10 10 13 14 15 18 18 19 19 17 19 20 18 16 13 11 7 10 10 1 2 4 4 5 5 6 7 11 7 9 13 12 15
29 26 24 22 22 20 19 18 17 18 18 17 16 16 17 17 18 19 21 24 24 21 16 14 15 17 16 13 10 8 10 8 5 3 2 3 6 3 4 6 10 5 11 14 15
33 30 29 28 27 26 24 23 23 24 23 24 22 21 20 20 21 24 23 27 27 27 25 22 15 13 12 15 13 10 7 11 12 9 6 7 8 9 6 3 9 8 5 13 14
37 35 34 33 32 30 29 29 29 28 28 28 27 26 25 26 26 27 28 29 31 29 29 26 24 20 10 13 15 16 11 9 12 8 9 11 9 6 6 5 3 7 8 11 15
41 39 39 37 36 36 35 35 34 33 31 31 32 34 35 35 34 34 34 34 35 35 34 30 29 25 18 14 16 18 18 14 12 11 11 10 10 5 5 6 7 7 6 7 13
43 42 41 41 41 41 41 40 39 39 37 37 36 36 38 39 40 41 40 39 40 39 39 37 35 32 29 22 18 19 22 17 15 17 13 12 12 6 6 6 6 7 7 1 10
49 47 46 46 46 45 44 44 42 43 44 42 42 41 40 42 43 45 43 41 42 43 39 38 36 35 32 25 22 19 24 21 17 15 20 18 14 16 8 7 5 5 5 4 5
54 52 51 50 51 49 47 46 45 46 46 45 45 44 44 45 46 47 47 47 46 44 42 42 42 36 32 29 22 20 25 24 20 21 25 20 18 20 14 14 13 10 10 6 5
58 57 55 55 55 53 51 50 50 48 49 48 49 50 51 50 49 47 48 49 49 50 49 47 45 36 32 28 22 22 23 24 26 23 29 31 26 23 25 23 21 20 14 14 11
63 61 60 59 59 58 55 55 54 53 53 51 54 56 56 55 51 50 51 52 52 55 55 52 41 34 30 26 24 21 23 22 24 27 31 34 34 31 32 30 30 29 21 20 19
68 67 66 65 64 63 62 60 58 57 57 58 60 60 59 55 54 54 56 56 57 59 56 47 36 30 27 25 24 24 23 22 25 25 30 34 35 34 35 31 30 29 29 25 29
75 72 70 72 69 68 68 66 64 64 64 64 64 63 60 58 58 59 60 61 62 59 53 39 33 29 26 25 23 23 20 21 25 26 25 27 29 31 32 32 32 34 34 33 30
79 79 76 75 75 75 72 72 70 68 70 70 67 67 65 63 63 65 64 64 65 53 42 37 32 28 26 25 24 21 22 22 21 25 26 26 26 26 26 27 28 29 30 32 36
80 79 82 82 79 77 76 77 77 75 73 70 66 68 69 68 70 71 70 67 51 43 38 34 31 27 25 25 24 24 24 25 24 26 26 26 25 24 25 25 25 26 26 29 33
70 76 80 81 81 79 81 82 80 77 77 75 77 75 72 73 70 65 55 47 42 39 37 35 30 27 25 27 27 27 26 26 27 27 27 26 29 31 29 28 27 26 27 26 28
56 59 63 65 67 69 71 74 73 70 69 66 63 61 58 55 52 51 46 41 38 37 36 33 30 26 26 26 29 30 28 29 29 31 31 32 34 35 36 32 29 29 28 30 31
53 53 53 53 53 55 57 58 57 55 56 53 53 52 49 48 47 46 42 40 39 37 36 33 32 28 26 26 29 32 32 33 33 33 33 35 36 36 37 39 36 34 32 32 32
54 53 54 54 53 52 52 52 51 48 46 45 46 45 45 45 45 45 42 40 39 39 37 34 35 33 33 33 29 30 31 31 32 30 32 34 37 39 39 38 41 40 40 39 38
54 53 53 52 54 55 56 57 55 50 45 44 46 45 46 46 46 44 44 42 41 41 40 39 40 40 39 38 37 37 34 32 31 31 33 35 34 35 42 46 43 42 42 43 44
55 55 55 54 53 53 54 55 55 54 52 51 52 54 52 51 51 50 48 47 46 46 44 43 42 41 39 37 35 34 31 30 32 34 36 37 38 40 41 42 44 48 47 46 46
53 54 55 54 54 53 53 53 53 52 52 52 52 55 55 55 55 55 55 54 50 49 46 43 40 39 37 38 37 31 33 35 36 38 39 40 41 43 44 45 45 48 50 51 50
Wind_Direction
151 141 136 130 125 117 107 97 91 82 77 75 78 83 97 73 61 56 54 52 53 55 54 56 66 68 69 78 83 94 127 161 167 145 131 151 213 222 203 224 251 274 226 196 227
162 153 146 140 133 126 120 113 101 94 86 79 75 67 67 61 55 52 45 39 36 41 53 59 66 72 68 71 79 88 95 105 114 115 113 135 196 222 224 230 242 231 190 185 178
178 177 173 165 149 140 134 120 110 99 91 85 79 69 61 56 50 48 42 35 30 30 32 42 52 71 75 69 71 76 78 86 93 100 116 140 162 257 227 234 222 223 223 214 204
187 190 189 190 188 186 186 170 178 113 94 84 68 75 68 50 43 39 34 31 26 27 31 27 28 40 70 62 54 66 66 73 88 95 104 130 197 219 241 250 247 240 231 236 235
197 199 199 208 207 219 234 237 232 261 163 74 53 36 36 44 34 38 27 20 16 18 21 27 29 21 38 65 25 29 44 55 70 74 75 68 72 135 227 257 250 234 234 230 232
206 205 213 219 225 231 244 257 264 270 270 268 292 334 345 349 1 359 6 13 13 6 3 8 15 17 0 356 327 308 325 48 49 52 44 31 29 24 29 297 244 228 223 231 227
214 218 221 226 231 237 243 253 258 265 275 276 282 299 319 323 335 342 346 351 356 9 6 1 1 355 349 334 319 294 281 331 27 338 0 7 350 4 11 19 357 215 199 206 211
220 224 230 234 241 247 252 259 267 272 273 270 277 287 295 306 316 323 331 338 339 348 355 3 357 340 327 320 301 300 285 244 212 304 264 267 311 302 345 23 13 318 201 184 196
224 228 230 239 246 252 256 263 268 271 273 280 281 279 284 292 306 314 321 327 329 330 335 337 343 336 308 303 298 280 267 255 235 236 277 268 309 321 291 336 20 351 248 186 186
227 231 235 243 250 253 257 262 267 269 276 281 283 281 282 288 297 305 310 315 319 320 324 326 327 324 304 289 291 288 272 251 255 248 253 254 263 303 317 301 32 16 329 212 184
232 236 238 244 248 253 258 261 265 269 276 282 286 290 294 297 298 301 306 306 310 314 317 316 315 313 320 298 279 278 274 262 249 226 228 235 237 266 340 333 330 21 28 251 195
232 235 242 246 250 256 259 263 266 269 272 273 280 287 291 296 296 299 302 305 306 311 312 309 308 311 305 297 281 266 268 258 245 254 256 243 265 259 288 320 311 354 359 163 217
232 237 240 244 249 255 260 263 267 270 272 278 281 286 291 294 294 295 300 307 308 306 306 308 309 306 301 296 283 259 255 255 240 229 248 253 264 233 258 286 288 292 348 330 202
235 236 241 245 248 254 259 263 268 272 275 278 283 286 288 290 294 296 300 303 305 306 304 309 308 303 296 294 285 267 248 247 247 240 232 238 239 245 249 254 274 279 271 296 286
237 239 242 246 248 251 255 259 264 269 274 278 280 282 286 288 292 294 298 302 302 303 304 307 305 300 293 288 282 270 253 244 242 238 235 233 243 241 244 255 266 278 259 268 272
238 239 241 244 246 251 254 256 260 265 269 273 278 281 284 286 290 293 295 297 297 298 303 304 300 296 287 283 274 262 251 246 240 239 235 242 248 253 253 260 264 266 266 271 266
239 240 242 245 247 251 255 257 260 264 268 273 278 283 284 284 287 289 290 291 294 297 301 298 296 288 280 273 265 255 251 244 242 237 237 238 244 240 252 247 252 263 265 263 271
241 243 244 245 248 251 252 258 261 265 268 273 278 280 281 282 284 286 287 291 296 296 296 292 285 280 273 267 261 253 241 242 243 242 235 237 239 244 249 251 250 249 248 249 241
246 246 246 248 252 255 259 262 265 268 270 272 274 278 279 282 283 284 288 292 295 293 288 282 277 270 265 258 255 250 239 235 241 241 240 239 235 234 237 242 244 245 244 241 240
248 249 249 251 255 257 260 263 265 267 269 271 273 276 280 282 283 284 287 289 286 282 278 275 271 265 256 248 245 239 233 232 230 235 241 243 244 240 235 239 249 250 248 242 237
249 251 253 253 254 256 261 261 262 266 269 272 276 277 279 280 281 281 280 277 275 274 273 271 267 262 253 246 240 237 232 234 233 233 238 253 258 256 251 246 245 250 253 249 246
248 249 251 253 255 257 259 262 264 266 268 269 270 270 271 271 270 271 270 269 266 264 263 262 259 254 251 246 241 236 232 230 228 229 230 232 243 256 260 256 251 252 256 257 252
246 248 250 252 253 254 256 258 260 259 260 263 265 266 265 264 265 263 263 262 262 260 257 254 251 248 248 247 245 245 238 234 232 230 231 232 238 241 257 265 264 262 261 261 259
247 248 249 250 252 253 255 256 258 257 259 260 260 261 262 260 259 260 259 257 258 258 257 255 257 253 251 252 250 247 246 246 245 242 240 237 238 242 242 253 265 265 264 265 264
244 245 248 250 250 252 253 254 256 256 255 254 256 255 256 258 259 257 258 259 256 255 257 258 260 261 260 256 256 254 250 248 250 246 245 245 244 243 245 246 250 261 267 267 266
246 246 247 248 248 249 250 252 253 254 253 252 252 254 253 254 257 260 259 258 259 262 261 262 262 259 258 259 258 258 263 263 257 252 248 248 246 245 246 245 246 248 254 260 267
248 247 247 248 249 250 251 251 252 253 252 251 249 251 252 251 252 254 256 257 257 257 259 259 256 250 250 254 254 257 258 256 258 260 260 259 257 256 256 257 252 249 248 250 257
Height
10991 10993 10995 10997 10998 11000 11001 11001 11003 11003 11003 11003 11002 11003 11002 11002 11001 11000 11000 11001 11001 11001 11000 11001 10999 10999 10999 10997 10995 10995 10997 10999 11000 11002 11002 11004 11006 11009 11011 11012 11013 11013 11014 11015 11017
10992 10994 10996 10998 11000 11001 11003 11004 11005 11006 11006 11006 11006 11005 11005 11005 11005 11004 11003 11003 11003 11004 11003 11003 11003 11003 11004 11003 11004 11002 11001 11001 11000 11001 11002 11003 11005 11007 11009 11011 11012 11012 11014 11015 11016
10993 10995 10996 10999 11001 11002 11003 11005 11006 11008 11009 11009 11009 11008 11008 11008 11008 11007 11007 11006 11005 11005 11005 11005 11005 11005 11006 11007 11007 11006 11005 11002 11001 11001 11002 11005 11007 11007 11008 11010 11011 11012 11013 11014 11016
10992 10994 10996 10998 11000 11002 11003 11005 11006 11008 11009 11010 11011 11011 11011 11010 11010 11009 11009 11009 11008 11007 11007 11007 11006 11006 11007 11008 11008 11008 11007 11005 11003 11003 11003 11003 11006 11007 11006 11006 11008 11010 11012 11013 11014
10991 10994 10996 10998 11000 11002 11003 11004 11006 11007 11009 11010 11011 11011 11011 11012 11012 11012 11012 11011 11009 11009 11009 11009 11009 11008 11008 11008 11010 11009 11007 11006 11005 11004 11004 11005 11006 11006 11004 11003 11004 11005 11008 11010 11011
10990 10992 10995 10997 10999 11001 11002 11003 11004 11006 11007 11009 11010 11011 11012 11012 11012 11012 11012 11012 11010 11008 11007 11008 11007 11007 11007 11007 11007 11008 11007 11005 11004 11003 11003 11004 11006 11007 11005 11002 11001 11001 11003 11005 11007
10988 10990 10993 10995 10997 10999 11001 11002 11003 11005 11005 11007 11009 11010 11011 11011 11011 11010 11010 11010 11010 11009 11008 11006 11005 11006 11006 11006 11006 11006 11005 11003 11002 11002 11002 11003 11004 11005 11005 11002 11000 10999 11000 11002 11004
10985 10988 10990 10992 10994 10996 10998 10999 11001 11003 11004 11005 11007 11009 11010 11010 11010 11010 11009 11008 11008 11008 11009 11008 11005 11003 11004 11004 11004 11004 11003 11003 11001 11002 11003 11004 11003 11002 11002 11001 10999 10998 10997 10998 11001
10982 10984 10986 10988 10991 10993 10995 10997 10998 10999 11001 11002 11004 11006 11007 11008 11008 11007 11007 11006 11005 11005 11005 11005 11005 11005 11003 11001 11000 11000 11000 11000 10999 11001 11002 11002 11001 11001 11001 11000 10998 10996 10995 10995 10997
10978 10980 10982 10984 10986 10988 10991 10993 10994 10995 10997 10999 11000 11001 11003 11005 11005 11004 11004 11004 11003 11002 11002 11002 11002 11001 11000 10997 10995 10995 10996 10996 10997 10996 10998 10999 10999 10999 10999 10998 10997 10996 10994 10994 10993
10972 10975 10977 10980 10981 10983 10985 10987 10990 10992 10993 10994 10995 10995 10996 10997 10998 10999 11000 11000 10999 10998 10998 10998 10997 10994 10995 10994 10991 10990 10990 10991 10993 10993 10995 10996 10996 10996 10997 10996 10995 10993 10993 10994 10993
10967 10970 10972 10974 10975 10977 10978 10981 10985 10987 10988 10989 10991 10991 10991 10990 10990 10992 10992 10993 10993 10992 10991 10990 10988 10987 10987 10988 10986 10986 10985 10986 10987 10988 10990 10992 10994 10994 10994 10994 10994 10993 10992 10992 10994
10960 10963 10966 10968 10968 10970 10973 10975 10978 10980 10981 10983 10984 10985 10985 10985 10985 10984 10985 10985 10984 10983 10982 10981 10980 10979 10978 10978 10978 10980 10979 10979 10981 10984 10985 10988 10989 10990 10991 10993 10993 10993 10991 10991 10990
10952 10955 10957 10960 10962 10964 10966 10969 10971 10972 10974 10976 10977 10977 10978 10978 10978 10978 10978 10978 10975 10974 10974 10973 10971 10971 10970 10970 10972 10971 10973 10974 10976 10979 10982 10983 10984 10986 10989 10990 10990 10991 10991 10989 10989
10942 10945 10948 10950 10953 10955 10958 10961 10963 10965 10967 10969 10969 10969 10969 10971 10971 10972 10971 10969 10968 10965 10965 10965 10962 10962 10962 10962 10963 10963 10964 10968 10970 10973 10975 10977 10979 10980 10982 10984 10985 10986 10987 10987 10987
10932 10935 10938 10940 10942 10945 10949 10952 10954 10957 10959 10961 10960 10960 10961 10962 10963 10963 10963 10961 10960 10957 10956 10955 10954 10954 10954 10955 10955 10957 10957 10961 10964 10966 10968 10970 10972 10974 10975 10978 10979 10981 10982 10982 10983
10920 10924 10928 10929 10932 10935 10939 10942 10945 10948 10949 10950 10951 10951 10952 10953 10954 10954 10953 10952 10950 10948 10947 10944 10945 10945 10946 10946 10948 10949 10952 10954 10956 10959 10961 10962 10965 10968 10969 10971 10973 10975 10976 10977 10976
10907 10913 10917 10918 10921 10923 10926 10930 10934 10936 10938 10940 10941 10940 10942 10943 10943 10942 10941 10940 10939 10936 10935 10936 10936 10936 10937 10937 10940 10943 10946 10948 10949 10951 10954 10955 10958 10959 10959 10960 10962 10965 10968 10970 10971
10893 10899 10903 10906 10909 10911 10916 10918 10923 10925 10925 10928 10929 10930 10930 10931 10931 10929 10929 10929 10928 10926 10925 10925 10926 10929 10929 10929 10931 10935 10938 10941 10942 10944 10947 10949 10951 10951 10951 10952 10953 10955 10958 10960 10962
10879 10884 10889 10893 10895 10899 10902 10903 10908 10911 10913 10915 10919 10918 10918 10917 10916 10916 10917 10918 10915 10914 10914 10916 10917 10919 10922 10922 10924 10927 10931 10934 10936 10937 10937 10938 10940 10942 10944 10946 10947 10948 10950 10952 10954
10863 10869 10872 10877 10880 10886 10888 10887 10892 10897 10899 10902 10904 10905 10903 10903 10903 10903 10905 10906 10905 10904 10904 10905 10908 10912 10914 10915 10916 10920 10923 10927 10930 10932 10933 10932 10930 10931 10936 10940 10942 10942 10943 10944 10946
10849 10854 10856 10860 10866 10871 10870 10869 10878 10884 10884 10885 10887 10889 10890 10889 10890 10890 10892 10894 10896 10896 10897 10897 10900 10904 10907 10909 10910 10911 10915 10919 10921 10924 10926 10927 10926 10924 10925 10930 10935 10937 10938 10938 10940
10837 10840 10843 10847 10852 10855 10856 10857 10863 10869 10868 10872 10873 10874 10876 10877 10877 10879 10881 10883 10884 10886 10888 10891 10892 10897 10899 10900 10901 10902 10905 10908 10911 10915 10917 10919 10920 10922 10918 10917 10921 10925 10928 10929 10930
10824 10829 10830 10834 10838 10841 10843 10845 10849 10854 10858 10861 10861 10862 10863 10865 10866 10867 10870 10873 10874 10875 10877 10882 10882 10887 10889 10890 10894 10896 10898 10902 10904 10908 10910 10913 10914 10914 10916 10914 10911 10914 10917 10919 10920
10812 10816 10817 10822 10825 10827 10829 10832 10835 10841 10848 10850 10849 10850 10851 10852 10853 10857 10858 10861 10864 10866 10868 10871 10873 10875 10879 10882 10884 10886 10890 10893 10896 10898 10900 10902 10904 10906 10906 10907 10909 10907 10905 10906 10907
10799 10802 10805 10807 10811 10814 10816 10818 10821 10827 10832 10836 10838 10836 10840 10842 10842 10844 10847 10850 10853 10854 10857 10861 10863 10865 10867 10870 10874 10877 10882 10885 10887 10888 10890 10891 10893 10894 10895 10896 10896 10898 10898 10896 10895
10785 10787 10791 10794 10796 10800 10802 10804 10807 10812 10816 10820 10824 10823 10824 10828 10830 10831 10833 10835 10841 10843 10846 10847 10850 10853 10857 10858 10863 10870 10871 10871 10873 10874 10875 10876 10878 10879 10881 10882 10883 10884 10886 10887 10888